Вернуться в каталог

STARLINK-30144

АктивенСвязьVLEO
NORAD 56835·PAYLOAD·🇺🇸 United States

Запущен Jun 4, 2023 с Cape Canaveral Space Force Station

Loading…

Ближайшие Пролёты (ближайшие 24 часа)

TLE

СвежийSource: CelesTrak SupGP

Эпоха: Sep 14, 2026, 14:57 UTC

1 56835C 23079N   26257.62340278  .00134740  00000+0  19792-2 0  2577
2 56835  42.9858  97.8191 0024466 262.1710 274.6773 15.54168469    17

Отслеживайте STARLINK-30144 в реальном времени с AllMySat

Download on the App Store